Home   Weather   Wuppertal   Past weeks

Flag for Germany Past Weather in Wuppertal, North Rhine-Westphalia, Germany — Yesterday and Last 2 Weeks

Now
27 °F

Snow. Overcast.


Feels Like: 27 °F
Forecast: 26 / 38 °F
Wind: 1 mph from Northwest

Location: Duesseldorf

Current Time: Dec 3, 2016 at 6:46:02 pm

Latest Report: Dec 3, 2016 at 6:20 pm


Visibility: 0 mi

Pressure: 30.33 "Hg

Humidity: 100%

Dew Point: 27 °F

Location of WuppertalLocation

Past Weather in Wuppertal — Graph

°F

Wuppertal Temperature Yesterday

Maximum temperature yesterday: 46 °F (at 1:50 am)
Minimum temperature yesterday: 28 °F (at 11:50 pm)
Average temperature yesterday: 42 °F

High & Low Weather Summary for the Past Weeks

 TemperatureHumidityPressure
High59 °F (Nov 20, 1:50 pm)100% (Nov 23, 4:50 am)30.60 "Hg (Nov 23, 4:50 am)
Low21 °F (Nov 29, 2:20 am)45% (Nov 29, 2:50 pm)29.30 "Hg (Nov 20, 11:20 am)
Average42 °F83%30.07 "Hg
* Reported Nov 18 5:20 pm — Dec 3 5:20 pm, Wuppertal, Weather by CustomWeather, © 2016

Note: Actual official high and low records may vary slightly from our data, if they occured in-between our weather recording intervals... More about our weather records

Advertising

Wuppertal Weather History for the Previous 24 Hours

Scroll right to see more
 ConditionsComfort  
Time TempWeatherWind HumidityBarometerVisibility
5:20 pm
Sat, Dec 3
30 °FIce fog.1 mph100%30.30 "Hg0 mi
4:50 pm30 °FIce fog.3 mph100%30.30 "Hg0 mi
4:20 pm30 °FIce fog.3 mph100%30.30 "Hg0 mi
3:50 pm32 °FFog.3 mph100%30.30 "Hg0 mi
3:20 pm34 °FFog.1 mph100%30.30 "Hg0 mi
2:50 pm34 °FFog.3 mph100%30.30 "Hg0 mi
2:20 pm34 °FSleet. Cloudy.3 mph100%30.30 "Hg1 mi
1:50 pm34 °FSleet. Cloudy.3 mph100%30.30 "Hg1 mi
1:20 pm34 °FSleet. Cloudy.2 mph100%30.30 "Hg2 mi
12:50 pm34 °FSleet. Cloudy.3 mph100%30.33 "Hg1 mi
12:20 pm32 °FSleet. Cloudy.3 mph100%30.33 "Hg3 mi
11:50 am34 °FChilly.3 mph100%30.33 "Hg4 mi
11:20 am32 °FChilly.5 mph100%30.33 "Hg1 mi
10:50 am30 °FIce fog.3 mph100%30.33 "Hg0 mi
10:20 am30 °FChilly.2 mph100%30.33 "Hg1 mi
9:50 am28 °FChilly.2 mph100%30.30 "Hg1 mi
9:20 am25 °FIce fog.1 mph100%30.30 "Hg0 mi
8:50 am25 °FCold.1 mph100%30.30 "Hg1 mi
8:20 am27 °FChilly.1 mph93%30.30 "HgN/A
7:50 am27 °FFog.1 mph100%30.30 "HgN/A
7:20 am25 °FFog.1 mph100%30.27 "HgN/A
6:50 am25 °FFog.1 mph100%30.27 "HgN/A
6:20 am25 °FFog.2 mph100%30.27 "HgN/A
5:50 am25 °FFog.1 mph100%30.27 "HgN/A
5:20 am25 °FFog.1 mph100%30.27 "HgN/A
4:50 am27 °FFog.1 mph93%30.27 "HgN/A
4:20 am27 °FFog.2 mph100%30.27 "HgN/A
3:50 am27 °FFog.2 mph100%30.27 "HgN/A
3:20 am27 °FFog.2 mph100%30.27 "HgN/A
2:20 am28 °FFog.2 mph100%30.27 "HgN/A
1:50 am28 °FFog.2 mph100%30.27 "HgN/A
1:20 am27 °FFog.2 mph100%30.27 "HgN/A
12:50 am30 °FFog.2 mph100%30.27 "HgN/A
12:20 am30 °FFog.3 mph100%30.27 "HgN/A
11:50 pm
Fri, Dec 2
28 °FFog.2 mph100%30.24 "HgN/A
11:20 pm30 °FFog.2 mph100%30.24 "HgN/A
10:50 pm30 °FFog.3 mph100%30.24 "HgN/A
10:20 pm30 °FFog.3 mph100%30.24 "HgN/A
9:50 pm30 °FFog.2 mph100%30.24 "HgN/A
9:20 pm32 °FFog.3 mph100%30.24 "HgN/A
8:50 pm32 °FFog.2 mph100%30.24 "HgN/A
8:20 pm34 °FFog.2 mph100%30.24 "HgN/A
7:50 pm34 °FFog.2 mph100%30.24 "HgN/A
7:20 pm36 °FFog.2 mph100%30.24 "HgN/A
6:50 pm37 °FFog.2 mph100%30.21 "HgN/A
6:20 pm37 °FFog.2 mph100%30.21 "HgN/A
Weather by CustomWeather, © 2016

See weather overviewHow to use our weather pages